Location: Betra
(48.4113°N, 8.6634°E)
Time: 23:19:05
(UTC+00:00)

Aureole 3 - Pass Details

Date: 12 August 2024
Orbit: 375 x 1118 km, 82.5° (Epoch: 10 September)

Event Time Altitude Azimuth Distance (km) Brightness Sun altitude
Rises 00:50:18 0° 353° (N) 2,618 7.8 -24.3°
Reaches altitude 10° 00:52:37 10° 357° (N) 1,630 6.6 -24.1°
Enters shadow 00:55:15 43° 24° (NNE) 619 4.0 -24.0°
